User: anonymous   Login
Location: Edmonton
(53.5500°N, 113.5000°W)
Time: 04:14:01
(UTC-07:00)
Language:

CZ-4C R/B - Orbit

View from above orbital plane
View from above orbital plane
View from above satellite
View from above satellite

Ground track
Ground track

The orbit data is extracted from the following two-line orbital elements,

1 36416U 10009D   15061.15660692  .00000012  00000-0  89481-4 0  9995
2 36416 063.4493 349.5839 0304835 359.2772 000.7785 13.69455766249600
Epoch (UTC): 02 March 2015 03:45:30
Eccentricity: 0.0304835
inclination: 63.4493°
perigee height: 776 km
apogee height: 1226 km
right ascension of ascending node: 349.5839°
argument of perigee: 359.2772°
revolutions per day: 13.69455766
mean anomaly at epoch: 0.7785°
orbit number at epoch: 24960

The dashed part of the orbit path shows where the satellite is in the earth's shadow,  

DLR